[[{"header":{"parameterUnit":"m.s-1","parameterCategory":1,"la1":30.2991,"la2":30.254,"lo1":-89.0895,"lo2":-89.0444,"dx":0.0017,"dy":0.0017,"nx":28,"ny":28,"refTime":"2022-12-30T15:00:00:Z","depth":0,"parameterNumber":2,"parameterNumberName":"U-component_of_WINDS"},"data":[0,0,0,0,0,0,0,0,0,0,0,0,0,0,0,0,0,0,0,0,0,0,0,0,0,0,0,0,0,0,0,0,0,0,0,0,0,0,0,0,0,0,0,0,0,0,0,0,0,0,0,0,0,0,0,0,0,0,2.0396,2.0396,0,2.042,2.042,2.0421,2.0417,2.0417,2.0417,2.0416,2.0441,2.0442,2.0443,0,0,0,0,0,0,0,0,0,0,0,0,0,2.0347,2.0348,2.0396,2.0396,2.0396,2.042,2.042,2.0421,2.0417,2.0417,2.0416,2.0416,2.0441,2.0442,2.0443,0,0,0,0,0,0,0,0,0,0,0,0,0,2.0369,2.0348,2.0396,2.0397,2.0398,2.042,2.042,2.0421,2.0418,2.0417,2.0416,2.0416,2.0441,2.0442,2.0444,2.0466,0,0,2.0448,2.0449,0,0,0,0,0,0,0,0,2.0368,2.0371,2.0397,2.0397,2.0398,2.0415,2.0412,2.0436,2.0418,2.041,2.0416,2.0415,2.0433,2.0435,2.0441,2.0467,2.0468,2.0449,2.045,2.045,2.0451,0,0,0,0,0,0,0,2.0367,2.037,2.0405,2.0397,2.0398,2.0397,2.04,2.0417,2.0425,2.0411,2.041,2.0413,2.0433,2.044,2.0442,2.0468,2.0449,2.045,2.0451,2.0452,2.0514,2.0514,0,0,0,0,0,0,2.0364,2.0369,2.0405,2.0406,2.0381,2.0399,2.0402,2.041,2.0424,2.0426,2.0414,2.0413,2.0437,2.044,2.0443,2.0469,2.045,2.0452,2.0453,2.0513,2.0514,2.0515,0,0,0,0,0,0,2.0363,2.0368,2.0404,2.0387,2.0392,2.04,2.041,2.0411,2.0417,2.0427,2.0428,2.0419,2.0437,2.044,2.046,2.047,2.0452,2.0454,2.0512,2.0513,2.0514,2.0523,0,0,0,0,0,0,2.0362,2.0367,2.0375,2.0388,2.0393,2.042,2.0411,2.0412,2.042,2.0419,2.0432,2.0434,2.0437,2.0458,2.0462,2.0472,2.0455,2.0511,2.0513,2.0514,2.0522,2.0524,2.0526,0,0,0,0,0,2.036,2.0377,2.0376,2.038,2.0403,2.0421,2.0424,2.0427,2.0421,2.0429,2.0436,2.0433,2.0469,2.046,2.0464,2.0475,2.0511,2.0512,2.0514,2.0521,2.0524,2.0526,0,0,0,0,0,0,2.0365,2.0378,2.0377,2.0398,2.0409,2.042,2.0431,2.043,2.0442,2.0441,2.0445,2.0447,2.0467,2.0473,2.0463,2.0498,2.0489,2.0491,2.0493,2.0496,2.0498,2.0496,2.0456,0,0,0,0,0,2.0369,2.0382,2.0393,2.041,2.0415,2.0422,2.043,2.0432,2.0443,2.0447,2.0455,2.0465,2.0479,2.0488,2.0501,2.0523,2.0526,2.0533,2.0535,2.0537,2.0539,2.0552,2.0555,2.052,2.052,2.052,0,0,2.0376,2.0385,2.0393,2.0411,2.042,2.0433,2.0426,2.0441,2.0451,2.0449,2.0468,2.0474,2.0487,2.0508,2.0518,2.0513,2.055,2.0539,2.054,2.0541,2.0554,2.0557,2.056,2.0521,2.0521,2.0521,0,0,2.0396,2.0404,2.042,2.0429,2.0441,2.0446,2.045,2.0462,2.0466,2.0485,2.0484,2.0497,2.052,2.0529,2.0537,2.0562,2.056,2.0566,2.0577,2.059,2.0592,2.0595,2.0604,2.0607,2.0568,2.0568,2.0568,0,2.0404,2.0424,2.0428,2.0443,2.0452,2.0451,2.0467,2.0475,2.0491,2.0497,2.0493,2.0522,2.0531,2.0554,2.056,2.0566,2.0571,2.0564,2.0592,2.0594,2.0597,2.0605,2.0609,2.0569,2.0569,2.0569,2.0569,0,2.0433,2.0447,2.0459,2.0474,2.0484,2.05,2.0506,2.0516,2.0517,2.0522,2.0542,2.0552,2.0568,2.0574,2.0575,2.0598,2.0595,2.0591,2.0582,2.0601,2.0609,2.0612,2.057,2.0569,2.0569,2.0569,0,0,2.0456,2.0474,2.0478,2.0486,2.05,2.0512,2.0528,2.0543,2.0551,2.0563,2.0576,2.0596,2.0593,2.0602,2.0605,2.0615,2.0635,2.061,2.0611,2.0614,2.0661,2.0663,2.0667,2.0634,2.0635,2.0636,2.066,0,2.0477,2.0505,2.0509,2.0534,2.0548,2.0548,2.0562,2.0573,2.0578,2.0591,2.0598,2.0612,2.0607,2.0612,2.0623,2.063,2.0644,2.0629,2.0647,2.0648,2.0643,2.0671,2.0673,2.0696,2.0663,2.0664,2.0664,0,2.0506,2.0518,2.0544,2.0558,2.0563,2.0576,2.059,2.0603,2.0615,2.0619,2.0629,2.063,2.0647,2.0639,2.0662,2.0652,2.066,2.0664,2.0665,2.0667,2.0656,2.0673,2.0703,2.0706,2.0669,2.0669,2.0668,0,2.0519,2.0543,2.0562,2.0568,2.0584,2.0593,2.06,2.0612,2.0621,2.0634,2.064,2.0655,2.0663,2.0675,2.0681,2.0674,2.0704,2.0696,2.0707,2.0707,2.0713,2.0712,2.0744,2.0719,2.0719,2.0719,2.0719,0,2.0542,2.0558,2.0568,2.0579,2.0598,2.0603,2.0621,2.0628,2.0639,2.0652,2.0653,2.0666,2.0673,2.0686,2.0691,2.071,2.0714,2.0717,2.0718,2.0716,2.0716,2.0721,2.072,2.072,2.072,2.072,2.0719,0,2.056,2.0568,2.0588,2.0602,2.0606,2.0619,2.0631,2.0642,2.0648,2.0665,2.0669,2.0679,2.0695,2.0702,2.0722,2.0725,2.0747,2.0747,2.0743,2.0743,2.0754,2.0753,2.079,2.0795,2.0767,2.0767,2.0768,0,2.0574,2.0586,2.0602,2.0611,2.0618,2.0633,2.0642,2.0648,2.0658,2.0674,2.0684,2.07,2.0713,2.0739,2.0748,2.0763,2.0764,2.0776,2.0766,2.0764,2.0763,2.0762,2.0764,2.0777,2.0777,2.0778,2.0778,0,2.0598,2.0601,2.0615,2.063,2.0641,2.0653,2.0665,2.0673,2.0681,2.0692,2.0709,2.0719,2.074,2.0756,2.0772,2.078,2.078,2.0781,2.0784,2.0783,2.0779,2.0781,2.0747,2.078,2.078,2.0779,2.0779,2.0779,2.0614,2.0625,2.0638,2.0653,2.0663,2.0674,2.0686,2.0694,2.0708,2.0725,2.0728,2.0746,2.0759,2.0781,2.079,2.0804,2.0801,2.0806,2.0807,2.0808,2.0809,2.0778,2.0807,2.0807,2.0807,2.0807,2.0807,0,2.0637,2.0646,2.066,2.0677,2.0689,2.0689,2.0703,2.0713,2.0729,2.0741,2.0754,2.0774,2.079,2.0801,2.0817,2.0826,2.0827,2.083,2.0829,2.0831,2.081,2.0806,2.0829,2.0829,2.0829,2.0829,2.0829,2.0829,2.0651,2.067,2.0675,2.0699,2.0708,2.0725,2.0733,2.0744,2.0753,2.0775,2.0788,2.0796,2.0808,2.0825,2.084,2.0843,2.0848,2.0852,2.0855,2.0835,2.0832,2.083,2.0826,2.0853,2.0853,2.0874,2.0874,2.0874]},{"header":{"parameterUnit":"m.s-1","parameterCategory":1,"la1":30.2991,"la2":30.254,"lo1":-89.0895,"lo2":-89.0444,"dx":0.0017,"dy":0.0017,"nx":28,"ny":28,"refTime":"2022-12-30T15:00:00:Z","depth":0,"parameterNumber":3,"parameterNumberName":"V-component_of_WINDS"},"data":[0,0,0,0,0,0,0,0,0,0,0,0,0,0,0,0,0,0,0,0,0,0,0,0,0,0,0,0,0,0,0,0,0,0,0,0,0,0,0,0,0,0,0,0,0,0,0,0,0,0,0,0,0,0,0,0,0,0,0.1927,0.1928,0,0.2048,0.2049,0.205,0.2135,0.2135,0.2136,0.2137,0.226,0.2262,0.2265,0,0,0,0,0,0,0,0,0,0,0,0,0,0.1768,0.1771,0.1927,0.1928,0.193,0.2047,0.2049,0.2051,0.2135,0.2135,0.2136,0.2137,0.2259,0.2262,0.2265,0,0,0,0,0,0,0,0,0,0,0,0,0,0.1858,0.1772,0.1927,0.1986,0.1992,0.2047,0.2049,0.2051,0.2134,0.2135,0.2136,0.2137,0.2258,0.2262,0.2266,0.2271,0,0,0.2278,0.228,0,0,0,0,0,0,0,0,0.1853,0.1864,0.1976,0.1982,0.1989,0.2077,0.2039,0.2125,0.2134,0.208,0.2137,0.2138,0.2198,0.2207,0.2228,0.2277,0.2282,0.2278,0.2281,0.2282,0.2284,0,0,0,0,0,0,0,0.1846,0.1859,0.1975,0.1977,0.1986,0.2006,0.202,0.2055,0.2132,0.2085,0.2092,0.2105,0.2202,0.2223,0.2231,0.2284,0.2278,0.2282,0.2284,0.2286,0.2342,0.2342,0,0,0,0,0,0,0.1831,0.1853,0.1971,0.1978,0.1922,0.2008,0.2024,0.2048,0.2132,0.2146,0.2104,0.2108,0.2216,0.2226,0.2236,0.2247,0.2282,0.2286,0.2288,0.2343,0.2342,0.2341,0,0,0,0,0,0,0.1827,0.1841,0.1966,0.1918,0.1935,0.201,0.2036,0.205,0.2071,0.2146,0.216,0.2112,0.2217,0.223,0.2261,0.2252,0.2288,0.2292,0.2344,0.2343,0.2342,0.2269,0,0,0,0,0,0,0.1822,0.1839,0.1842,0.1917,0.1937,0.199,0.2036,0.2051,0.2078,0.2085,0.2157,0.217,0.2219,0.2255,0.2265,0.2259,0.2295,0.2345,0.2344,0.2342,0.2273,0.2266,0.226,0,0,0,0,0,0.1816,0.1817,0.1842,0.1855,0.1943,0.1989,0.2001,0.2057,0.2077,0.2081,0.2128,0.2168,0.2252,0.2257,0.227,0.2264,0.2346,0.2344,0.2342,0.2276,0.2267,0.226,0,0,0,0,0,0,0.1739,0.1828,0.1856,0.1881,0.1927,0.2003,0.2009,0.2046,0.2087,0.2092,0.216,0.2175,0.2199,0.2235,0.224,0.2273,0.2304,0.2304,0.2249,0.2241,0.2235,0.2226,0.2298,0,0,0,0,0,0.1724,0.1754,0.1831,0.1845,0.1867,0.1934,0.1956,0.1995,0.2046,0.2065,0.2116,0.2163,0.22,0.2223,0.2261,0.2279,0.2295,0.2281,0.2274,0.2268,0.2268,0.2279,0.2273,0.2335,0.2335,0.2335,0,0,0.1695,0.1747,0.1762,0.1831,0.1871,0.19,0.1949,0.1979,0.2001,0.207,0.2102,0.2141,0.2198,0.2222,0.2235,0.2252,0.2254,0.2266,0.226,0.2263,0.2276,0.227,0.2265,0.2333,0.2333,0.2334,0,0,0.1657,0.17,0.1716,0.1755,0.1815,0.186,0.1863,0.1934,0.1962,0.1996,0.2048,0.2076,0.2138,0.2176,0.2204,0.2179,0.2217,0.219,0.2155,0.2165,0.216,0.2156,0.2147,0.2143,0.2189,0.2189,0.2189,0,0.1613,0.166,0.172,0.1746,0.1774,0.1838,0.1854,0.1889,0.1959,0.1977,0.1995,0.2074,0.2117,0.2151,0.2145,0.2165,0.2171,0.2182,0.2156,0.2153,0.215,0.2142,0.2138,0.2185,0.2185,0.2186,0.2186,0,0.1602,0.1634,0.164,0.1705,0.1734,0.1755,0.1818,0.1841,0.1877,0.1919,0.1952,0.2006,0.2056,0.2067,0.2103,0.2106,0.2114,0.2143,0.2175,0.2139,0.2133,0.213,0.218,0.2181,0.2182,0.2183,0,0,0.1518,0.1616,0.1617,0.1647,0.1718,0.1744,0.1768,0.1816,0.1834,0.1879,0.1901,0.1952,0.1979,0.201,0.2051,0.206,0.2036,0.2088,0.2091,0.2076,0.2042,0.2019,0.2014,0.2062,0.2061,0.2061,0.2037,0,0.149,0.1537,0.1592,0.1619,0.1649,0.1709,0.173,0.1775,0.1815,0.1846,0.189,0.1925,0.1959,0.1978,0.1989,0.2037,0.203,0.2039,0.2082,0.2083,0.2065,0.2011,0.1988,0.1962,0.2035,0.2034,0.2034,0,0.1464,0.1507,0.1537,0.1605,0.1619,0.1637,0.1686,0.1714,0.1767,0.1795,0.1829,0.1873,0.1901,0.1929,0.1968,0.1973,0.1994,0.2019,0.202,0.2026,0.2056,0.2015,0.1955,0.1951,0.2031,0.2031,0.2031,0,0.1399,0.1464,0.149,0.1514,0.1594,0.1605,0.1638,0.1692,0.1718,0.176,0.1777,0.1822,0.1847,0.1881,0.1935,0.1951,0.1968,0.2001,0.1992,0.199,0.1993,0.1992,0.1935,0.2006,0.2006,0.2006,0.2007,0,0.1362,0.1378,0.1462,0.1478,0.1498,0.156,0.1578,0.1617,0.1664,0.1688,0.1743,0.1765,0.1836,0.1866,0.1909,0.1934,0.1945,0.1969,0.198,0.1964,0.196,0.1978,0.1981,0.2006,0.2006,0.2006,0.2006,0,0.1293,0.135,0.1382,0.1455,0.1474,0.1485,0.1547,0.1565,0.1608,0.1638,0.1649,0.1716,0.1754,0.1812,0.1868,0.1896,0.1914,0.1933,0.1897,0.1903,0.1891,0.1891,0.1843,0.1839,0.1913,0.1912,0.1911,0,0.1265,0.1279,0.1353,0.1373,0.1405,0.1437,0.1464,0.1525,0.1551,0.1611,0.1621,0.1664,0.1701,0.1759,0.1813,0.1855,0.1875,0.1855,0.1882,0.1864,0.1874,0.1872,0.1874,0.1848,0.1847,0.1846,0.1846,0,0.121,0.1237,0.1273,0.1319,0.1348,0.1387,0.1429,0.1442,0.1513,0.1539,0.1578,0.1607,0.1663,0.1705,0.1754,0.1789,0.1829,0.1837,0.1837,0.182,0.1798,0.1809,0.1879,0.1838,0.1838,0.1839,0.184,0.184,0.116,0.1175,0.1229,0.1267,0.1305,0.1342,0.1362,0.1408,0.1442,0.1493,0.1527,0.1565,0.1617,0.1688,0.172,0.175,0.1767,0.1767,0.1767,0.1766,0.176,0.1794,0.1759,0.176,0.176,0.176,0.176,0,0.1107,0.1145,0.1179,0.1236,0.1265,0.1301,0.1348,0.1371,0.1403,0.1448,0.1483,0.1528,0.1568,0.1625,0.1669,0.1682,0.1702,0.1692,0.1691,0.1698,0.1742,0.1738,0.1675,0.1675,0.1675,0.1675,0.1675,0.1675,0.1083,0.111,0.1143,0.1189,0.1227,0.1264,0.1288,0.1323,0.1359,0.1407,0.144,0.1477,0.1527,0.1575,0.1613,0.1629,0.1642,0.1626,0.1647,0.1688,0.1695,0.1703,0.1699,0.1629,0.1629,0.1601,0.1601,0.1601]}]]